Theta_e
363 365 366 365 365 364 361 359 364 363 363 362 361 361 357 357 366 362 363 362 360 360 360 359 360 360 358 362 362 361 361 360 362 359 359 362 363 361 359 359 358 358 358 356 357 357 358 358 358 357 357 356 356 356 356 355 355 356 356 356 356 355 355 354 354 354 354 354 354 354 353 353 354 354 354 354 354 354 354 354 355 355 354 354 354
363 366 365 364 364 363 362 361 361 363 366 365 362 361 363 360 362 361 360 361 360 362 360 358 356 358 360 358 359 359 360 358 360 361 362 359 363 360 360 359 359 359 358 357 357 356 357 358 358 357 357 357 356 355 355 355 355 355 355 355 354 354 354 354 354 353 353 354 354 354 354 354 354 354 354 353 354 354 354 354 354 354 355 354 354
365 366 367 365 364 365 362 363 362 363 364 363 366 364 362 360 362 359 360 362 360 362 360 361 361 359 360 359 359 360 360 362 358 358 359 363 362 365 363 360 360 359 358 358 357 356 356 356 356 357 357 357 356 356 356 355 354 354 355 355 355 354 354 354 355 354 354 353 353 354 354 354 355 355 355 354 354 354 354 355 354 355 355 354 354
369 368 368 365 363 362 363 364 360 362 364 364 366 367 365 366 369 368 368 366 363 364 364 358 359 357 360 357 360 359 359 360 356 358 360 361 363 363 365 363 360 359 358 359 358 356 356 356 356 355 356 356 356 356 356 356 356 355 355 356 356 356 355 356 354 355 355 355 355 355 355 354 355 355 355 354 354 354 355 355 354 354 355 354 354
369 370 368 365 365 366 364 365 364 364 366 369 369 369 368 367 369 370 368 365 363 362 363 358 358 359 358 358 358 358 360 361 361 361 360 361 362 360 363 366 366 359 359 359 358 357 357 356 356 355 356 356 356 355 354 354 354 356 356 354 355 356 356 356 356 356 355 355 355 355 355 355 355 354 354 354 354 354 354 355 354 354 354 354 354
373 371 369 367 367 367 364 363 365 368 369 370 366 365 364 366 365 365 358 363 359 361 359 357 356 359 358 358 360 361 360 356 358 359 360 360 361 362 359 362 364 367 365 359 358 358 358 357 356 357 357 356 355 355 355 354 354 354 355 354 354 355 357 357 357 356 356 355 355 355 354 354 354 354 355 354 354 354 354 354 354 354 353 353 353
374 372 369 367 365 363 364 364 368 369 367 368 366 366 367 366 363 362 360 355 356 356 356 357 356 356 358 360 358 358 359 357 358 359 360 365 365 361 360 356 361 364 364 364 359 359 358 358 357 357 358 358 357 357 356 356 356 357 357 355 356 356 356 355 355 355 355 355 355 355 354 355 354 355 354 354 354 353 354 354 353 354 353 353 353
377 375 370 368 365 364 363 370 371 369 369 369 369 365 368 367 365 361 353 349 353 351 352 352 352 355 356 357 358 358 357 358 359 357 358 363 364 364 364 361 360 360 360 362 359 363 360 359 359 358 358 358 357 357 357 356 356 357 357 357 356 357 356 356 356 355 355 355 355 355 354 354 354 354 354 354 354 353 353 353 353 353 353 353 353
376 377 372 370 367 366 363 369 372 371 370 368 367 367 367 361 365 362 357 353 345 343 345 349 349 350 352 350 352 356 355 360 358 358 358 362 363 363 362 362 362 357 363 366 366 366 361 360 359 359 358 358 357 358 358 357 357 358 358 357 357 358 356 356 356 356 356 356 355 355 355 354 354 354 354 354 354 354 353 353 353 353 353 353 352
374 377 373 371 370 367 367 370 372 371 369 369 367 367 367 367 363 360 355 352 345 344 343 345 348 347 349 348 353 351 352 356 359 360 361 360 359 362 363 364 364 362 364 366 364 363 365 362 360 360 359 359 358 358 358 358 357 357 357 357 357 357 357 356 356 356 356 355 355 355 355 354 354 354 354 354 353 353 353 352 352 352 353 352 352
372 375 374 370 369 369 372 372 372 371 371 369 368 366 367 363 363 359 361 355 349 348 347 348 348 345 344 346 351 356 354 353 358 359 358 357 357 358 359 364 365 364 366 365 363 365 364 363 365 366 365 360 360 359 358 358 359 358 357 358 357 357 356 356 356 356 355 355 355 354 355 354 354 353 353 353 353 352 352 351 352 351 352 351 351
371 373 374 372 369 368 371 371 370 369 368 366 366 365 364 365 365 352 353 353 353 351 348 347 346 348 348 348 352 355 356 354 356 355 360 358 360 362 359 362 363 362 361 364 362 361 364 364 362 359 360 361 361 359 359 359 358 357 357 358 357 356 356 356 356 355 355 355 355 354 354 354 354 352 351 351 352 352 351 351 351 351 351 351 350
369 370 371 370 370 371 370 371 371 368 368 367 368 367 366 367 364 361 352 350 346 346 349 348 347 344 350 346 350 353 352 355 352 352 353 356 358 360 358 359 360 359 363 361 361 361 359 360 359 359 358 359 361 360 360 359 359 358 358 357 357 356 356 356 355 355 356 355 354 355 355 353 351 351 351 351 352 351 350 349 350 350 351 350 349
369 370 369 369 369 367 369 371 371 369 370 370 369 366 369 367 364 354 355 349 347 345 349 348 343 338 338 340 342 345 349 349 348 348 350 353 355 358 358 355 354 355 357 358 357 355 354 357 359 357 359 360 359 359 362 363 361 358 358 358 357 356 356 355 355 355 355 355 355 355 354 352 350 350 351 350 348 349 350 348 349 350 349 348 346
369 369 368 368 367 368 369 371 371 370 367 370 370 369 368 365 364 353 348 350 348 352 353 352 339 341 343 340 336 337 345 345 345 345 346 350 352 352 354 353 352 354 355 355 355 357 354 355 357 359 360 360 359 358 359 363 358 360 358 357 357 356 356 356 355 354 354 354 353 355 354 353 349 350 351 349 347 347 349 347 349 349 348 347 346
367 369 368 367 369 370 367 367 370 371 368 368 368 367 368 367 364 357 353 345 343 345 349 352 348 342 337 337 337 337 333 339 342 345 346 349 348 348 350 350 351 353 355 353 352 355 356 357 358 359 359 359 361 359 358 359 362 359 357 358 358 358 357 355 356 354 353 351 354 354 353 351 350 349 350 350 348 348 348 349 348 348 348 347 345
369 369 367 369 370 369 367 367 366 369 371 369 368 366 368 365 366 361 354 346 342 343 348 349 351 350 343 338 337 335 334 336 336 341 345 346 347 347 348 347 349 352 351 352 355 355 354 354 359 359 361 361 361 358 358 360 360 361 362 359 357 358 357 356 356 355 354 353 354 354 353 352 350 350 349 349 349 349 349 349 348 347 344 347 344
371 370 369 367 370 369 369 366 365 366 367 366 367 368 361 362 361 364 355 352 350 345 345 351 350 353 352 344 342 336 337 340 340 335 349 345 346 344 346 348 349 350 354 352 352 353 355 354 357 359 361 360 360 357 357 359 360 359 361 360 358 357 357 356 356 356 356 355 354 354 354 352 351 349 349 349 350 349 348 348 348 348 349 346 343
369 371 370 370 369 370 369 367 366 366 366 365 368 367 364 364 365 364 356 354 350 346 344 346 350 351 347 346 347 349 345 342 338 340 337 343 346 345 345 345 347 348 349 349 349 350 354 354 352 354 356 359 359 359 360 360 359 356 358 358 357 357 356 354 355 356 356 356 355 354 353 354 352 352 350 349 349 350 350 347 348 347 345 342 343
368 370 372 369 369 369 370 368 366 364 363 362 363 366 367 369 369 365 362 359 353 348 345 345 344 346 348 347 349 350 351 347 348 343 340 337 340 343 344 344 346 347 348 347 348 349 349 353 352 353 355 357 358 359 360 358 358 362 363 360 357 358 357 356 355 356 355 356 356 355 354 353 352 352 352 351 350 350 351 349 348 347 347 345 343
369 370 371 370 369 369 370 369 366 365 366 361 361 365 369 369 369 364 361 360 358 354 351 346 344 343 348 349 348 348 349 349 349 350 343 340 338 339 341 345 346 347 348 347 347 348 349 353 353 351 354 357 360 360 359 359 359 362 360 361 359 357 357 356 356 356 356 355 356 356 354 352 352 352 351 351 349 349 350 349 348 347 346 346 345
370 370 370 370 369 369 367 366 367 363 364 361 361 364 366 367 367 367 364 360 360 357 353 351 348 348 350 350 349 349 350 349 348 345 344 347 338 338 339 340 340 345 349 348 350 349 349 350 350 350 353 356 357 360 361 361 362 360 359 360 359 357 357 356 355 355 355 356 355 356 355 351 350 351 351 351 351 351 349 349 349 346 346 345 346
363 368 369 369 369 369 365 364 366 366 367 366 363 360 361 362 364 366 366 363 360 359 355 356 355 354 352 351 349 347 347 346 345 347 347 344 342 340 341 342 340 340 346 349 352 349 349 349 349 349 355 355 357 357 360 362 362 357 359 358 357 357 356 356 356 355 355 355 356 356 356 355 352 351 352 353 352 351 351 350 349 349 347 346 347
366 364 367 365 368 367 369 366 366 367 366 368 367 363 361 363 362 365 365 366 365 363 361 358 356 356 353 350 351 350 349 348 346 349 349 347 346 344 341 344 344 343 345 351 351 347 348 348 349 350 352 353 358 360 359 361 361 359 361 359 356 355 355 356 356 355 354 354 353 354 355 356 354 353 353 354 354 353 352 351 350 351 350 348 347
363 363 364 366 367 369 369 366 367 368 369 367 368 368 366 362 363 364 364 365 365 364 360 360 357 354 352 353 349 351 350 350 350 347 348 349 348 342 342 343 341 342 347 347 347 346 347 347 350 349 351 357 358 361 362 361 357 361 360 360 353 355 354 355 356 355 354 353 354 355 355 354 353 352 352 353 354 354 353 353 351 350 349 349 349
362 364 363 365 365 368 370 369 371 370 370 370 368 369 369 364 365 365 364 366 366 366 364 362 361 359 358 355 353 351 350 350 349 349 346 345 345 344 346 347 346 342 346 350 356 348 346 350 350 355 353 355 358 361 365 359 356 362 358 355 358 352 353 352 354 353 352 353 352 353 354 355 355 354 353 351 351 352 353 352 352 351 350 350 350
361 365 368 366 367 369 369 369 369 371 371 370 368 369 371 369 366 367 366 365 367 366 364 362 359 359 360 358 356 355 354 354 350 350 351 347 345 345 346 343 341 341 342 345 348 352 346 349 347 349 357 362 360 361 364 363 358 361 360 364 358 354 351 351 351 351 351 351 351 351 352 353 353 355 354 353 352 351 351 352 352 352 351 350 350
365 366 367 367 368 368 370 369 370 370 372 371 370 367 370 368 366 367 367 364 367 368 366 365 361 363 361 362 362 356 358 355 355 353 351 352 351 350 349 347 343 339 341 341 342 344 346 345 349 352 356 359 361 362 363 359 356 359 361 362 361 359 352 349 348 348 347 347 349 349 350 351 351 353 354 354 353 352 352 351 352 352 351 351 351
364 368 368 370 369 368 368 366 369 370 371 372 369 369 370 369 365 368 366 363 366 368 366 366 366 361 361 362 361 361 361 362 359 358 358 358 354 353 352 347 347 342 339 339 342 339 344 344 342 359 356 356 360 357 358 361 355 357 359 363 362 363 353 346 346 345 345 345 346 346 347 349 349 349 350 351 351 351 352 351 350 351 352 351 351
363 363 368 366 368 369 367 367 366 369 368 367 368 368 370 366 367 369 366 366 366 368 368 366 365 365 363 362 362 360 363 362 361 361 361 361 355 353 352 353 352 345 344 339 340 345 344 347 345 343 363 357 355 358 360 359 354 357 355 355 356 357 348 346 346 345 345 344 343 343 344 346 346 346 345 345 346 348 349 349 349 349 350 350 351
367 367 367 365 367 368 369 365 366 367 368 366 368 368 369 367 365 365 367 369 366 367 369 368 365 365 366 364 364 362 364 362 363 361 362 362 360 354 352 353 353 353 350 346 340 347 349 346 348 350 349 353 352 353 355 355 356 357 356 357 357 352 348 355 346 345 344 342 341 340 340 340 340 340 341 342 342 344 345 346 347 347 348 348 349
365 367 366 365 364 364 364 362 361 363 365 364 365 367 368 367 365 363 363 369 368 367 364 365 364 365 367 366 367 366 365 364 363 362 362 364 363 359 358 356 356 357 355 350 346 345 351 348 349 353 353 354 354 353 355 357 357 356 359 356 358 353 357 357 351 345 343 341 340 339 337 335 335 337 339 340 342 343 345 344 343 344 344 344 346
365 365 366 366 365 365 362 363 361 362 365 364 365 366 368 367 366 367 367 367 367 367 367 364 365 366 367 367 367 368 369 366 364 363 361 363 365 363 361 359 357 359 357 354 350 349 354 357 355 354 357 360 355 358 356 355 359 360 357 362 362 358 357 357 356 349 343 340 338 337 336 335 335 336 338 339 341 342 344 345 343 341 340 340 340
365 364 366 365 365 365 364 364 365 364 366 368 364 364 366 366 366 364 366 368 368 366 367 367 367 366 368 368 367 366 368 367 365 362 362 359 360 359 361 360 359 359 361 357 355 352 351 357 356 360 358 360 358 363 361 359 359 361 359 358 358 361 361 360 358 357 346 341 337 335 335 334 334 335 335 337 338 339 340 341 340 338 337 337 335
366 364 364 364 366 368 366 365 367 367 368 368 367 365 365 367 366 363 363 366 366 365 365 367 366 367 366 368 366 366 365 366 367 365 362 362 361 360 360 361 361 360 361 362 358 355 354 354 359 357 357 359 359 360 363 363 364 362 362 361 358 358 358 357 357 356 348 342 338 336 334 334 334 334 333 335 336 336 336 335 335 335 335 334 332
363 366 365 365 367 369 367 367 367 369 368 367 367 367 367 368 367 367 365 365 366 366 366 366 365 366 365 366 365 364 364 366 367 366 365 363 363 364 363 364 364 363 364 364 364 360 359 355 360 359 360 359 360 363 363 364 362 361 360 361 360 358 357 357 356 355 350 343 340 336 335 334 333 332 332 332 332 331 331 330 330 331 331 330 330
362 365 366 366 367 369 366 367 367 368 368 369 368 366 366 368 368 366 366 366 367 367 367 367 366 368 366 365 365 365 367 365 366 366 366 367 367 364 363 364 364 364 365 364 362 361 357 354 357 361 363 363 363 365 366 363 363 364 364 362 360 361 361 359 357 356 348 342 341 338 336 335 334 333 332 332 331 330 329 328 328 328 328 328 328
362 363 365 365 365 368 370 368 368 369 370 369 369 368 364 366 367 367 366 366 366 367 368 366 367 368 366 367 367 366 366 366 365 365 367 368 368 366 365 365 365 364 363 362 362 360 358 355 356 356 361 359 360 361 363 362 360 359 362 363 364 363 362 360 359 358 358 357 358 358 344 339 336 332 333 333 331 330 329 328 328 327 326 325 323
361 360 363 366 366 367 369 369 367 369 370 368 369 369 367 366 366 368 363 363 365 366 367 365 364 365 366 366 368 368 368 367 366 366 368 368 367 367 367 367 366 364 361 362 361 358 357 356 357 358 358 360 360 356 361 363 362 360 358 357 356 361 362 361 359 360 361 359 354 347 348 348 345 346 335 328 329 329 330 329 328 326 325 323 321
360 360 360 363 365 366 367 368 368 369 370 369 369 370 369 366 364 366 367 363 362 365 366 366 365 362 364 365 364 366 369 369 368 369 369 367 368 368 368 367 366 364 362 361 361 358 357 356 355 354 355 355 356 358 359 360 358 359 361 359 355 357 359 362 362 359 360 359 358 357 351 347 345 341 333 333 333 332 330 331 331 331 328 325 322
361 360 361 362 364 365 366 367 368 367 366 368 368 368 368 368 366 364 366 366 363 362 364 364 364 364 362 361 363 363 367 371 367 365 367 366 367 366 368 369 368 364 362 360 358 357 355 355 354 355 354 353 355 357 355 355 357 357 361 362 359 359 359 357 358 360 359 357 358 358 359 361 359 358 358 359 360 348 341 334 338 337 332 326 324
364 364 364 363 362 364 365 367 368 367 366 367 362 347 353 367 367 363 364 366 366 364 363 363 362 362 362 362 357 368 368 368 362 351 344 346 348 358 364 367 367 365 361 359 357 356 356 353 352 352 351 351 353 357 356 358 361 363 361 361 357 357 357 354 354 357 360 358 356 356 358 361 358 356 355 356 357 361 358 357 352 345 339 330 327
365 366 364 363 362 362 364 365 366 365 366 365 346 336 338 344 363 367 364 365 368 367 364 364 364 361 360 362 362 366 371 362 364 345 342 338 338 336 337 341 352 366 364 360 358 359 355 356 355 356 355 356 358 361 360 359 359 360 359 358 356 353 350 347 345 354 363 360 358 358 357 360 359 355 357 357 356 357 358 357 345 340 334 332 329
366 365 364 364 364 362 362 364 364 365 366 352 333 333 335 335 345 365 365 365 364 365 364 362 362 362 361 359 358 359 362 366 368 370 353 339 334 334 332 332 334 335 338 358 361 359 358 357 356 357 358 357 358 361 359 360 357 353 354 354 352 349 348 347 348 348 358 363 356 355 353 359 359 356 356 357 357 357 356 346 339 338 334 331 330
366 366 367 365 365 364 363 364 363 363 365 344 330 331 332 332 334 348 361 364 363 363 364 364 363 363 364 363 362 361 358 371 367 367 371 370 339 329 331 331 331 330 330 329 331 355 361 358 357 357 358 359 359 361 362 362 352 348 350 349 350 350 351 350 350 351 355 362 357 352 349 352 354 352 351 354 356 357 356 344 338 337 336 332 330
366 366 365 366 366 367 365 365 365 365 366 343 329 327 328 329 330 339 361 360 362 363 365 365 364 365 365 365 366 365 365 365 367 367 369 369 371 365 356 355 358 351 331 326 325 325 337 357 360 358 361 364 360 363 366 361 351 348 350 349 352 351 351 351 355 354 355 358 354 352 346 347 351 349 347 351 355 355 356 347 338 335 333 331 331
365 365 365 365 366 367 365 364 364 363 365 334 326 324 324 324 327 332 361 359 359 362 364 366 367 366 368 367 368 367 369 369 369 369 370 372 372 371 370 368 368 369 369 361 350 349 348 350 358 363 365 364 363 364 365 362 351 350 353 353 354 353 352 351 351 353 354 357 356 352 343 346 350 348 348 350 350 351 352 340 335 333 332 330 329
365 366 366 366 366 366 366 365 363 363 364 329 324 323 322 323 324 350 361 361 360 361 363 366 367 369 369 369 370 369 369 369 361 346 355 370 370 368 367 368 368 367 366 362 351 353 364 363 362 362 363 362 346 365 364 357 352 351 353 353 352 350 346 345 343 346 346 353 354 349 344 343 348 345 345 349 349 348 350 351 338 334 331 329 329
362 363 365 364 366 365 365 366 365 364 365 340 321 320 321 320 327 357 361 361 362 363 364 366 367 367 367 369 370 367 368 371 355 338 333 347 367 365 365 365 365 362 362 364 346 335 334 331 330 330 327 325 326 324 323 322 343 350 353 347 347 348 346 343 343 343 343 346 346 348 345 342 346 346 345 346 348 346 348 349 351 338 333 329 326
360 362 364 365 366 366 364 365 364 365 365 343 318 318 319 317 335 359 361 361 362 363 364 366 366 367 368 363 368 369 369 370 346 333 329 348 367 365 363 360 360 359 361 363 363 362 325 326 329 332 330 329 328 326 324 323 321 327 351 345 343 343 341 341 338 340 341 343 345 348 345 342 346 346 343 346 346 346 347 349 349 346 336 332 326
361 364 365 365 364 366 364 364 357 361 365 346 317 318 317 316 337 362 362 362 361 362 362 363 366 367 369 366 360 357 362 360 341 331 326 348 367 364 361 359 357 358 360 364 363 366 369 368 368 370 361 343 355 363 358 330 322 329 349 348 347 344 341 339 338 338 335 337 342 350 341 341 341 341 342 339 336 340 345 347 347 347 349 351 352
Wind_Speed
4 4 3 4 3 2 3 4 5 2 3 6 5 4 8 5 4 2 5 4 5 5 4 5 5 3 4 4 3 3 3 3 3 3 4 4 5 7 7 6 5 5 4 3 4 4 4 4 4 4 4 4 4 4 4 4 3 3 3 3 3 2 2 1 1 1 2 1 2 3 3 2 3 4 4 5 6 6 6 6 7 7 7 8 8
4 3 3 3 3 3 2 3 4 3 4 3 4 5 3 4 2 6 2 2 3 5 3 4 4 5 3 4 3 4 3 4 4 3 3 4 5 7 8 7 6 5 4 3 3 3 3 3 4 3 3 2 2 2 3 2 2 2 2 1 1 1 1 0 1 1 1 2 2 3 3 3 4 5 5 6 6 6 7 6 7 7 7 8 8
4 3 3 3 3 2 4 1 3 4 3 4 3 3 4 3 3 4 5 5 4 4 4 4 4 5 5 4 4 3 3 3 4 4 5 3 4 5 7 7 6 5 4 4 3 3 3 3 4 3 2 3 1 1 1 1 1 1 1 1 1 1 2 2 2 3 3 3 3 4 4 4 6 5 6 7 7 7 7 8 8 8 8 8 8
3 2 2 2 2 3 3 3 4 3 3 4 3 3 3 4 3 3 4 4 5 5 3 5 5 5 5 4 4 3 3 3 3 3 3 4 3 4 5 6 7 6 4 4 3 2 3 3 2 2 2 3 3 3 3 2 3 2 2 3 2 2 2 3 3 3 3 3 4 3 5 4 4 5 6 6 7 7 7 7 7 7 8 8 8
2 2 1 2 3 1 3 2 4 3 4 4 2 2 3 3 4 4 3 4 4 5 4 5 5 4 4 5 4 3 3 3 2 2 3 3 3 3 3 4 6 8 6 5 4 2 1 2 1 1 1 2 2 2 2 3 2 3 3 3 3 3 4 3 4 4 4 4 4 4 5 5 5 6 6 6 7 7 7 7 7 7 8 8 8
2 2 1 2 2 2 2 3 4 3 3 1 2 1 2 1 3 3 4 3 4 4 3 4 5 4 4 5 4 3 3 3 3 3 2 2 2 2 3 3 3 4 6 7 4 4 3 1 1 1 2 2 2 2 2 2 2 2 3 3 3 3 4 4 4 4 4 4 4 4 5 6 6 6 7 7 7 7 7 7 7 8 7 8 7
1 1 1 1 1 3 1 3 3 2 3 2 1 2 1 1 1 2 3 4 4 4 4 3 4 4 4 3 4 3 2 4 3 3 3 2 1 2 2 2 3 2 3 4 6 7 4 4 3 2 3 3 3 3 3 3 2 3 4 3 3 3 4 4 4 4 4 4 5 5 5 6 6 6 7 7 6 5 6 6 6 6 6 6 6
1 1 1 1 1 2 3 4 2 2 3 2 0 2 2 0 2 2 2 2 2 4 4 4 4 3 3 3 4 3 2 3 3 2 3 2 2 2 1 2 1 1 1 2 5 6 9 6 5 5 4 3 3 3 4 4 4 4 4 4 3 4 5 4 4 4 4 5 5 5 5 5 5 5 6 6 6 5 5 5 5 5 5 5 5
2 1 1 1 1 2 3 4 2 3 2 1 2 2 1 2 2 2 2 0 0 2 3 3 3 4 3 3 4 2 2 2 2 3 3 1 2 3 2 2 2 2 2 1 0 4 9 8 7 6 5 4 3 3 4 4 4 5 5 5 5 5 5 4 5 5 5 5 5 5 5 4 4 4 5 5 5 4 3 3 4 4 4 4 4
2 1 1 1 1 1 2 3 3 3 2 1 2 2 1 1 2 1 2 1 1 2 3 3 2 3 3 3 2 3 2 2 3 1 2 2 2 1 1 2 2 2 1 1 2 2 4 8 9 8 6 6 5 4 4 4 4 4 5 5 5 4 4 5 5 4 4 4 4 4 3 3 3 3 4 4 4 3 3 2 3 3 2 3 4
3 2 2 2 1 1 2 4 3 2 2 1 2 2 2 2 1 1 1 2 2 2 3 1 2 1 3 3 3 1 1 2 1 1 1 1 2 2 2 2 2 2 2 2 2 2 2 3 5 5 7 11 7 6 5 4 4 4 3 4 4 4 4 4 4 3 3 3 4 3 3 2 2 2 2 2 1 1 1 2 3 2 2 2 3
4 3 2 1 1 2 3 3 3 1 1 2 2 2 2 2 1 1 0 1 2 1 1 1 1 2 1 1 2 2 1 0 1 1 1 1 1 1 2 3 2 2 2 2 1 1 1 2 2 2 2 9 9 7 5 4 4 4 3 3 3 3 3 3 3 2 2 2 3 2 1 1 2 2 1 0 1 1 1 1 2 1 2 3 2
4 4 3 2 2 1 2 2 3 2 1 2 2 2 1 2 1 0 1 1 1 1 2 1 1 2 2 1 2 2 2 2 2 2 1 1 1 2 2 2 2 2 2 1 1 2 3 2 2 1 1 2 7 9 7 7 5 4 3 3 4 4 3 3 2 1 1 2 1 3 3 2 1 1 0 1 0 0 0 0 0 1 3 2 2
4 5 4 3 2 2 2 1 3 2 2 2 1 0 1 1 1 1 1 1 1 2 3 1 3 3 3 2 2 3 1 2 4 3 2 1 2 1 1 1 2 2 2 3 2 2 2 2 0 1 1 1 2 2 5 7 7 8 5 4 4 4 4 4 3 2 2 2 2 5 4 3 2 2 2 1 1 1 2 1 2 1 1 1 2
5 5 4 4 4 2 2 2 3 3 2 2 2 1 0 1 2 0 1 2 0 1 1 2 1 3 2 1 1 1 2 2 3 2 2 1 1 1 1 1 1 1 2 1 1 0 1 1 2 1 1 2 2 1 2 2 3 9 5 5 4 4 4 5 5 4 3 4 2 4 3 3 3 3 3 3 2 2 2 2 2 2 1 2 2
6 6 5 4 4 3 2 1 2 4 3 3 2 2 1 1 1 2 1 1 3 3 1 1 3 1 2 1 2 2 2 1 3 1 2 1 1 1 3 2 3 0 1 2 2 0 1 1 1 1 1 2 2 2 2 2 8 7 7 6 8 8 6 4 5 5 5 3 5 5 4 4 4 5 5 4 4 3 3 3 3 4 3 3 3
6 6 5 5 4 4 3 2 2 2 2 2 3 3 1 0 1 2 2 2 1 3 1 2 2 1 1 1 2 1 4 5 3 2 2 1 2 1 4 2 2 3 2 0 2 1 2 2 1 1 2 2 2 3 3 2 3 3 6 9 6 6 7 6 5 5 5 4 3 5 5 5 5 5 6 6 6 6 5 5 5 5 4 5 5
6 5 6 5 5 5 4 3 3 3 2 2 2 4 5 4 2 2 2 1 2 1 3 1 0 1 1 1 3 4 3 5 2 3 3 3 1 1 1 2 3 3 2 3 4 2 1 2 3 2 2 2 2 2 2 2 2 3 4 3 8 5 4 4 5 6 6 5 4 5 7 7 7 7 7 7 7 7 7 7 7 7 6 6 6
7 6 6 6 5 5 4 4 3 3 2 2 3 3 1 2 3 2 2 2 1 1 2 3 2 2 3 2 1 3 5 3 3 3 2 1 4 1 2 2 2 2 4 3 2 3 2 1 2 1 0 2 2 2 2 2 2 4 3 4 5 5 6 6 5 6 7 7 6 6 6 8 8 8 8 8 8 8 8 9 8 8 8 8 8
6 6 6 6 5 5 5 4 3 3 3 3 3 2 1 1 2 2 1 2 2 2 2 1 2 2 0 2 1 2 3 4 3 3 4 2 1 2 2 3 3 3 3 3 3 0 1 0 3 3 3 2 2 2 2 2 2 3 4 8 6 6 6 6 6 7 7 7 7 7 8 8 9 9 10 10 10 10 10 10 10 9 9 9 9
7 6 6 6 6 5 5 5 4 4 3 4 4 3 4 3 3 2 2 2 3 2 2 2 3 1 2 1 2 3 2 2 2 3 3 3 2 2 1 1 2 0 1 3 2 1 2 3 1 3 3 2 2 3 3 2 2 2 2 10 7 7 7 7 7 8 8 8 9 9 9 9 9 10 10 11 11 11 11 11 11 11 10 10 10
7 7 7 7 7 6 6 6 6 4 4 4 3 3 4 4 3 3 2 2 3 3 3 2 2 2 1 1 2 2 2 2 3 3 1 2 2 3 2 1 0 1 1 3 2 3 3 2 3 4 3 2 3 3 3 3 2 3 4 10 9 9 9 9 9 9 10 10 10 10 10 10 10 11 11 11 11 12 12 12 12 11 11 11 11
7 7 8 8 8 7 7 6 6 5 4 4 5 5 5 5 4 3 3 3 3 4 4 2 2 2 2 2 3 4 2 3 2 3 3 2 3 4 3 4 6 5 1 3 3 5 4 4 4 3 1 3 3 3 3 4 5 4 8 11 10 10 11 11 11 11 10 10 11 11 12 12 12 12 12 12 12 12 13 13 12 13 13 12 12
7 7 8 10 8 7 7 7 6 6 6 5 5 5 5 4 3 3 4 4 3 3 4 4 4 3 4 3 3 4 3 3 3 1 2 3 4 4 4 3 2 3 4 2 3 4 3 3 3 3 2 2 3 3 4 5 5 10 9 12 12 12 13 13 13 13 13 13 12 13 13 13 13 14 13 13 13 13 13 13 14 14 14 14 13
8 8 8 9 8 7 7 7 6 6 6 5 5 5 5 4 4 4 4 4 4 4 4 5 5 4 3 3 3 3 2 2 2 4 3 1 3 4 5 5 4 4 3 4 4 4 4 3 1 2 1 2 3 3 5 6 6 12 12 10 15 14 14 15 14 14 15 15 15 15 15 15 14 14 14 14 14 14 14 14 15 15 15 15 15
9 9 8 9 8 8 7 8 7 7 6 6 6 5 5 5 5 5 5 4 4 5 4 4 4 4 4 3 3 3 3 3 2 2 4 3 3 4 4 4 6 5 4 3 2 4 1 2 1 1 2 2 3 3 4 5 6 12 14 9 12 15 15 15 15 15 16 16 17 16 16 16 16 16 16 16 16 16 16 16 16 16 17 16 16
9 8 9 8 9 8 8 8 8 7 7 7 6 6 5 5 5 5 5 4 5 5 5 5 5 5 4 4 3 4 3 3 4 3 3 3 3 4 4 5 6 5 4 3 3 3 3 2 1 1 1 1 2 3 4 5 5 9 10 8 8 14 15 15 15 16 16 16 17 17 17 17 17 17 18 17 18 18 18 18 18 18 17 17 17
8 9 9 9 9 8 8 9 8 8 7 7 7 6 6 6 5 5 6 5 5 6 5 5 6 6 5 4 4 4 3 3 3 3 3 3 3 3 3 4 5 6 5 5 4 2 1 1 2 1 2 2 2 3 4 5 6 9 10 8 8 8 15 16 16 17 17 17 18 18 18 19 19 18 18 19 19 18 19 18 18 18 18 18 18
8 9 9 9 9 9 9 9 9 8 8 8 8 7 6 6 6 6 6 6 6 6 6 5 5 6 5 6 5 4 4 3 3 3 2 2 3 3 3 4 3 5 6 6 4 5 3 4 3 4 2 3 4 3 4 5 4 5 7 7 8 9 10 16 17 17 18 19 19 19 19 20 20 20 20 20 20 20 20 20 19 19 19 19 19
9 8 9 10 10 10 9 9 9 9 9 9 8 8 7 6 6 6 6 6 6 5 6 6 6 5 5 5 5 5 4 5 5 4 3 3 3 3 4 3 3 4 5 6 6 5 5 4 4 1 4 4 5 6 5 6 3 6 7 8 8 9 10 13 16 17 18 19 20 20 20 20 20 21 21 21 21 21 21 22 21 21 22 21 21
9 9 9 10 10 10 10 10 9 10 9 9 8 8 8 7 6 6 7 6 6 7 6 6 6 5 6 6 5 5 4 5 4 4 4 4 3 4 4 4 4 5 5 5 8 4 4 5 5 6 6 5 7 7 6 6 5 8 7 8 9 12 12 11 14 17 18 19 20 20 20 21 22 22 21 21 21 22 22 23 23 23 23 23 22
10 11 10 10 10 10 10 11 11 10 10 10 10 9 8 8 7 7 6 7 7 7 7 6 6 6 6 7 6 5 5 5 5 5 4 5 4 4 4 5 5 5 5 6 8 9 6 8 8 8 9 8 7 7 8 6 6 9 9 9 10 11 10 11 16 19 20 20 21 21 22 22 23 23 22 22 22 22 23 23 23 24 24 23 23
10 11 11 11 10 10 11 10 11 10 10 10 9 8 8 9 8 7 6 7 8 7 7 8 7 6 7 7 7 7 6 6 5 5 5 5 5 5 5 5 6 6 6 7 8 9 7 7 7 8 8 8 9 7 8 8 7 6 9 10 11 10 10 10 11 16 21 22 22 22 22 22 22 22 22 22 22 22 23 23 24 24 24 23 23
11 11 12 11 11 11 11 11 10 10 10 10 10 9 9 9 10 8 8 8 8 8 8 8 8 7 7 8 8 8 8 8 7 7 6 6 6 6 5 6 6 6 6 7 8 8 9 7 7 7 8 7 9 7 7 8 9 8 10 9 9 10 10 10 11 12 16 20 22 22 21 21 20 21 21 22 22 22 23 23 24 24 24 24 23
12 12 11 11 11 11 11 10 10 10 10 10 10 10 10 10 10 10 9 9 9 9 9 9 9 8 9 8 9 8 7 8 8 8 7 7 6 6 6 5 6 7 6 7 8 9 10 9 7 8 7 7 8 8 9 9 8 9 9 10 10 9 9 11 11 12 15 15 18 19 19 18 18 19 20 21 22 22 23 23 25 24 24 23 23
12 12 12 12 11 11 11 11 11 11 11 11 10 11 11 11 11 10 10 9 9 9 9 9 9 9 9 9 9 8 8 8 7 7 6 7 6 6 7 7 7 8 7 7 8 8 8 9 7 7 8 8 8 9 8 8 9 9 9 10 10 11 11 11 12 13 12 14 14 14 16 18 19 20 21 22 22 22 23 24 24 23 22 23 23
13 12 11 12 12 12 12 12 12 12 11 11 11 11 10 10 11 10 10 10 10 10 9 9 8 8 8 9 9 8 8 8 7 7 7 7 6 6 6 6 6 6 6 6 7 8 9 10 9 7 8 8 8 8 8 9 8 9 10 11 10 10 11 12 11 11 14 15 16 17 17 18 19 20 21 22 22 21 21 22 22 22 22 22 22
14 13 13 12 12 13 12 12 12 12 11 11 11 11 11 11 10 10 10 10 10 10 10 10 10 9 9 9 9 8 8 9 8 7 7 7 7 7 7 7 6 6 7 8 8 9 10 10 9 9 7 8 8 7 8 8 9 9 10 10 10 10 11 11 10 9 9 10 10 9 11 14 18 22 23 23 23 23 22 23 23 23 22 22 22
15 14 14 14 12 13 13 12 12 12 12 12 11 11 11 11 10 10 11 11 10 10 10 11 10 10 10 9 9 9 10 10 9 8 8 8 7 8 8 7 7 7 7 7 7 8 9 9 9 8 8 7 8 8 7 7 9 9 11 12 13 10 9 9 10 9 9 12 15 18 17 15 17 16 17 22 23 22 22 22 23 24 23 23 22
15 15 15 15 13 13 13 13 12 12 12 12 12 12 11 11 11 11 10 10 10 10 10 10 11 11 11 10 10 10 10 10 10 9 8 7 6 7 7 7 6 7 7 6 7 7 8 8 8 8 8 8 8 9 9 9 9 8 9 10 13 11 10 9 8 11 12 12 14 15 12 11 15 20 24 24 24 20 20 22 24 24 24 24 24
13 15 15 14 14 13 13 12 12 12 12 12 11 11 12 12 11 11 11 11 11 10 10 10 10 10 11 11 11 11 10 10 10 8 6 4 5 6 7 6 7 7 7 7 7 8 8 8 9 8 9 9 9 9 10 9 10 11 9 8 10 10 10 11 14 13 13 15 14 14 13 11 13 13 13 12 10 13 19 25 21 25 25 24 25
13 13 13 14 14 14 13 13 13 12 11 10 11 15 13 11 11 10 10 10 11 10 10 10 11 11 11 11 11 11 9 10 10 11 11 10 9 10 8 7 8 8 8 8 8 9 9 9 9 9 10 10 10 10 11 12 10 8 7 8 10 12 13 14 14 13 13 13 15 14 14 12 14 16 14 14 14 12 12 11 12 15 18 24 24
13 13 13 14 14 14 14 13 14 12 11 11 14 15 15 13 11 10 10 10 10 10 11 11 10 11 11 11 11 10 10 10 12 14 13 14 14 15 16 14 11 9 8 9 9 9 9 9 9 9 10 10 11 11 11 13 9 6 5 7 8 10 12 14 18 14 7 11 13 10 12 12 13 15 14 14 14 13 14 15 16 13 19 20 23
13 13 14 14 14 14 13 14 14 13 12 12 15 17 17 16 13 10 10 10 10 10 11 11 11 10 11 11 10 9 10 11 11 11 14 16 16 16 17 16 16 16 14 11 10 10 11 10 9 9 10 10 10 9 11 11 6 5 5 7 10 12 13 14 14 16 13 14 16 14 14 13 11 14 14 14 13 13 16 17 17 17 17 19 20
13 13 13 14 14 13 13 13 14 14 13 13 16 18 18 17 17 14 11 10 10 11 10 11 11 10 9 9 9 9 9 10 10 11 9 11 16 18 17 17 16 16 16 17 16 13 12 13 12 10 10 10 11 9 9 7 8 12 10 8 9 10 12 13 14 15 17 14 17 16 16 16 12 13 16 15 14 14 16 17 19 20 21 19 20
13 13 14 15 13 13 13 13 13 12 13 13 18 18 18 18 18 15 13 12 12 11 11 11 10 11 11 10 9 9 9 10 9 10 10 11 8 9 10 10 11 14 17 19 20 21 18 13 12 11 11 11 11 10 9 2 8 13 12 15 14 16 16 16 16 17 18 13 14 14 17 17 13 14 16 14 14 15 14 18 19 18 18 19 20
14 14 14 14 13 14 14 14 13 12 11 13 18 19 19 19 19 15 13 13 12 12 11 12 11 11 10 10 10 10 9 9 9 9 10 9 8 8 9 9 10 10 9 11 12 10 10 11 12 13 11 10 9 9 9 4 6 12 10 14 17 17 18 19 16 14 14 12 13 11 16 17 13 15 16 15 15 16 15 17 17 18 18 18 19
12 12 12 13 14 14 14 14 14 14 13 16 17 19 19 19 18 11 13 12 12 12 12 12 12 11 11 11 10 11 10 10 10 10 9 8 8 9 10 10 10 10 9 9 5 8 9 9 9 10 8 2 1 5 2 7 8 12 13 13 13 13 13 13 13 12 12 10 11 13 16 17 15 16 16 16 16 17 15 15 16 17 15 15 17
13 13 13 13 13 14 15 15 15 13 13 14 19 19 19 19 14 11 12 11 11 12 12 11 11 12 12 11 12 11 11 11 11 10 11 9 10 10 11 11 10 9 10 8 11 15 15 16 14 8 10 11 12 12 14 11 11 11 11 12 12 11 11 13 14 14 13 12 11 12 15 18 15 15 16 16 16 17 16 16 15 18 18 16 15
14 14 13 12 13 14 15 15 15 14 14 13 20 19 20 19 17 13 11 11 12 11 12 12 11 11 12 13 12 12 12 11 9 11 11 10 9 10 11 12 11 11 10 9 7 5 7 2 4 9 11 12 14 15 13 12 13 8 9 9 10 10 12 12 14 14 15 14 12 11 12 14 15 14 17 16 15 14 14 14 14 14 12 14 15
13 12 12 12 12 12 14 15 14 16 14 12 20 20 20 21 17 12 12 11 12 11 11 11 11 10 11 11 15 15 13 11 7 9 11 10 9 10 11 10 11 11 9 9 7 4 2 4 5 5 7 10 10 8 8 17 15 14 10 10 10 10 11 12 13 14 15 12 10 12 13 14 15 15 14 16 15 13 12 12 14 14 14 13 13
Wind_Direction
123 115 107 93 110 114 118 102 71 56 140 128 124 116 126 139 160 204 145 138 130 118 128 133 146 124 110 130 131 122 129 122 117 123 131 136 129 126 135 129 127 124 122 120 121 122 122 120 119 125 123 115 123 117 118 119 121 115 115 117 125 120 118 131 60 48 9 358 338 331 329 335 330 333 327 329 337 338 340 340 338 336 340 345 345
118 115 115 109 107 103 100 76 79 90 86 80 93 99 31 57 118 141 52 89 122 110 140 137 142 118 131 115 143 138 141 137 136 143 130 133 128 130 140 131 123 127 129 124 114 127 129 139 141 139 138 125 122 134 126 139 136 131 124 119 42 205 98 49 308 335 327 332 331 330 331 322 321 320 324 325 326 330 330 331 330 336 341 343 347
110 124 117 122 115 103 73 69 98 78 60 76 71 64 111 155 109 94 146 145 115 124 134 128 118 146 136 151 136 145 131 131 139 153 139 131 133 135 136 143 134 127 116 124 116 130 135 156 163 168 170 166 176 186 174 232 253 222 211 247 226 329 305 350 330 317 330 328 316 327 321 332 323 328 325 320 322 325 329 330 335 335 337 339 337
95 111 101 118 94 78 89 48 70 80 47 48 52 78 93 97 118 87 95 120 130 131 146 131 135 121 145 132 133 130 137 142 159 99 93 115 128 133 149 144 149 140 138 137 145 154 159 166 180 180 173 189 194 205 210 231 254 282 274 275 302 309 313 302 296 298 323 319 326 338 318 311 315 312 314 318 317 320 324 327 328 330 333 336 336
123 101 134 103 86 69 75 75 70 41 64 63 74 120 135 154 146 163 149 125 134 126 150 136 121 114 119 121 110 112 120 133 113 144 110 126 138 132 140 151 145 157 158 161 168 163 199 181 178 184 183 194 207 224 235 226 231 227 248 262 272 264 268 269 271 279 290 306 308 312 300 307 307 306 307 313 312 317 323 324 324 328 330 332 334
135 124 254 124 100 96 53 66 64 56 81 80 121 104 86 88 131 158 136 139 117 126 126 109 113 133 116 115 117 108 122 113 114 115 132 118 108 136 146 146 154 163 152 169 176 183 185 212 214 343 297 264 233 238 252 260 273 273 260 266 269 268 250 260 274 285 282 286 302 301 307 306 306 305 308 305 311 313 316 320 325 330 333 332 340
149 154 159 46 167 95 102 100 67 27 74 83 346 84 103 116 126 144 131 133 122 118 113 97 113 118 111 106 102 103 95 95 90 107 119 101 140 124 126 145 145 149 160 165 169 186 196 190 202 238 258 280 293 295 284 286 290 311 302 292 312 316 305 287 269 270 269 273 284 295 298 300 308 311 311 317 318 318 317 323 329 334 339 344 354
172 167 224 187 57 97 102 73 79 59 61 70 314 66 53 57 104 116 91 75 129 134 130 132 120 107 109 121 106 111 100 87 103 102 90 146 123 132 160 143 144 126 132 146 166 182 178 193 201 205 224 244 263 265 270 272 276 260 268 272 258 263 271 276 268 277 284 287 295 301 302 310 314 320 327 331 332 336 334 337 345 343 352 4 9
184 183 231 198 134 143 127 106 89 74 75 72 52 36 14 59 92 78 100 118 305 101 104 131 119 144 141 127 107 95 96 90 84 80 88 104 151 156 163 137 144 165 201 168 279 141 170 192 205 208 214 222 221 242 261 269 260 270 263 262 262 260 262 263 260 262 272 282 290 298 305 314 333 340 340 346 356 5 351 353 345 348 357 12 18
192 189 238 326 26 53 69 94 104 86 72 54 45 23 42 32 81 85 49 346 34 39 96 100 130 141 144 118 111 113 104 118 91 117 123 137 141 120 162 144 180 175 178 188 166 171 158 192 192 197 202 205 212 220 235 242 256 264 266 264 272 283 272 254 251 260 273 285 297 299 312 322 340 342 340 335 349 12 4 356 350 340 21 22 33
193 192 231 201 156 108 58 60 71 95 102 44 43 37 14 16 35 88 51 34 34 32 37 88 138 152 133 126 115 115 96 100 159 127 108 105 104 172 169 173 169 175 187 197 179 163 186 163 188 197 185 190 194 208 207 239 240 239 238 248 260 261 277 276 264 273 282 289 292 298 308 328 336 350 342 342 8 12 14 16 352 350 57 63 49
190 197 211 214 203 138 127 149 105 112 67 37 51 47 13 348 9 32 321 151 111 60 110 158 125 91 74 128 131 142 179 178 181 181 163 178 164 186 173 162 180 179 171 192 162 191 158 171 208 204 182 176 190 190 208 220 228 227 239 250 261 257 259 279 281 253 259 278 289 299 31 1 314 308 281 290 142 117 21 3 1 348 106 89 80
196 201 201 190 255 134 137 133 129 84 56 55 39 33 356 309 342 300 348 312 94 174 100 293 104 169 166 182 170 224 183 210 266 239 178 175 167 189 170 177 163 170 175 167 184 200 178 190 207 210 224 156 187 187 198 203 201 214 233 246 259 278 280 278 261 194 226 261 287 127 142 147 256 230 256 144 130 229 344 246 89 109 91 87 101
203 202 205 207 221 202 174 161 117 106 78 75 112 313 311 282 46 170 199 4 52 3 60 253 202 201 170 158 187 178 249 231 224 215 208 161 167 184 184 188 186 165 176 165 199 196 205 134 243 325 1 264 299 187 194 198 200 202 198 215 237 253 268 268 269 216 213 249 152 150 157 158 200 230 190 181 205 222 169 179 209 127 66 113 124
205 205 207 212 213 218 207 176 145 133 151 140 147 150 266 283 184 240 64 159 82 78 88 309 282 80 50 279 159 164 163 245 255 251 230 101 205 179 160 215 108 187 170 143 107 329 18 18 39 356 341 313 294 260 251 260 92 162 192 206 229 240 252 259 252 235 238 239 179 164 166 197 220 223 193 196 191 189 199 197 197 218 198 192 194
202 203 207 203 206 215 227 203 170 160 165 155 168 179 179 241 218 215 265 211 168 136 153 91 311 35 189 61 64 35 95 149 156 228 195 170 267 199 137 206 147 301 117 220 167 153 83 114 160 148 247 279 290 270 266 303 133 179 197 212 216 217 226 240 248 248 244 226 153 168 193 218 225 227 225 210 216 200 211 220 226 221 210 201 212
201 205 211 197 205 217 221 217 220 207 214 190 179 159 231 220 213 249 233 280 116 121 157 183 113 9 341 29 90 159 36 36 33 58 269 155 201 152 101 275 151 156 240 15 24 210 239 152 182 193 216 235 246 271 283 260 202 210 185 195 209 196 212 226 241 255 256 238 200 200 211 216 218 220 220 217 217 221 220 220 210 205 220 215 194
208 209 207 204 203 211 214 218 209 204 208 240 287 140 181 142 261 238 224 223 335 76 152 126 343 86 9 318 342 352 359 11 348 77 359 327 108 269 139 215 139 162 209 217 195 206 201 242 177 207 218 240 234 268 274 246 231 226 247 146 174 189 217 216 237 248 256 261 235 217 215 215 218 219 223 226 227 226 224 217 223 225 213 204 202
203 204 206 205 209 209 213 215 213 206 193 215 219 236 225 181 179 176 223 141 182 240 223 165 135 246 225 269 353 317 24 351 7 2 60 23 337 279 164 157 173 170 190 240 220 187 173 264 232 232 182 226 223 237 241 227 207 242 331 112 171 194 224 224 229 246 254 255 244 232 227 222 220 224 227 231 235 229 225 225 221 220 216 212 207
213 202 207 205 210 211 212 219 216 217 193 205 221 229 261 189 197 201 144 167 180 234 268 295 167 215 191 286 258 22 345 308 330 340 326 334 122 260 208 191 232 211 209 209 231 49 42 303 280 206 186 191 226 216 233 254 274 228 216 188 206 222 221 231 238 239 253 256 252 246 242 233 230 227 226 232 234 233 227 225 224 221 220 214 214
215 211 206 212 207 215 211 217 216 214 202 220 209 203 216 222 202 196 185 169 200 193 235 280 292 291 115 233 303 297 280 303 299 263 295 343 318 97 97 85 254 293 312 331 315 287 222 200 208 308 277 227 217 230 235 234 220 206 214 150 192 207 222 225 229 238 243 249 252 252 250 247 238 234 235 232 233 235 233 228 226 224 222 221 221
207 216 216 214 211 212 214 214 219 214 213 220 225 207 206 220 221 213 201 194 177 200 207 208 243 319 354 336 275 283 284 253 235 234 237 297 301 308 332 202 238 140 266 240 35 308 289 280 250 245 230 203 195 202 233 226 212 226 153 150 189 208 215 220 223 235 238 244 248 248 252 251 250 246 243 242 239 237 237 236 231 228 225 226 227
214 205 214 214 213 213 219 213 220 213 210 215 223 216 202 203 208 204 209 208 189 197 216 221 216 231 244 239 265 257 277 312 315 333 329 303 310 315 309 6 355 348 350 349 311 279 276 270 266 271 322 284 262 247 220 219 208 173 132 172 187 206 213 216 222 224 230 235 239 244 245 248 250 249 248 246 245 243 240 240 237 234 231 231 232
222 220 207 209 209 214 219 220 216 217 210 213 218 221 228 198 184 192 201 210 212 203 216 214 223 215 250 230 220 247 253 265 296 316 287 320 332 318 312 321 320 322 352 293 274 292 295 285 269 278 259 271 268 250 232 226 208 153 185 184 199 204 214 221 216 219 221 223 227 233 239 243 246 247 247 246 245 244 245 243 241 238 237 235 234
211 220 214 209 203 210 216 217 215 218 224 216 214 221 233 223 190 202 204 201 205 210 208 217 220 239 235 256 272 301 299 285 283 286 298 324 287 297 313 344 318 311 338 341 319 318 299 281 300 297 287 263 265 239 242 230 246 172 212 183 198 202 213 216 220 220 220 221 223 224 229 232 234 237 241 244 245 246 246 244 242 242 240 238 236
206 212 218 209 208 206 212 216 216 219 221 223 225 223 220 229 207 207 209 207 209 211 218 221 225 227 239 262 259 244 264 263 250 259 273 273 279 296 329 320 306 314 319 297 298 304 212 143 226 105 284 287 260 247 239 255 255 163 196 234 193 205 209 217 221 224 225 226 226 226 227 228 229 231 232 233 235 237 238 240 241 242 242 240 238
206 203 210 212 210 207 209 217 215 219 219 219 220 222 222 225 227 217 225 205 209 211 214 217 220 219 227 233 262 272 269 282 275 254 279 283 296 314 318 317 317 314 309 320 299 249 288 325 270 152 127 214 243 242 244 253 280 150 191 221 248 201 212 212 223 225 229 231 232 232 232 232 231 231 233 232 232 232 231 231 234 236 239 242 242
203 201 201 207 206 209 207 215 218 217 219 220 220 221 215 222 222 221 223 216 209 210 218 217 224 223 228 237 245 266 265 266 289 304 300 303 314 314 301 286 304 314 326 317 320 330 341 256 157 151 168 189 211 225 218 239 248 163 195 242 246 233 204 215 219 224 227 229 232 233 234 234 234 233 232 233 233 232 231 231 231 231 233 236 239
201 198 200 200 206 209 212 214 212 217 220 221 220 219 216 219 218 220 226 224 211 217 220 219 229 221 223 223 236 243 256 260 267 274 287 295 280 283 284 288 303 298 307 313 313 318 333 323 321 148 167 199 217 250 240 244 238 203 247 241 247 257 220 209 220 224 227 229 232 232 232 233 234 234 233 233 233 233 232 231 231 231 231 232 233
204 204 202 201 204 206 214 217 215 213 218 220 219 218 216 222 219 220 223 230 220 222 220 226 220 225 229 226 219 233 225 228 227 238 243 238 244 241 246 252 249 271 293 295 298 300 300 290 280 278 164 226 243 238 248 256 212 214 263 265 260 259 255 212 219 225 227 230 232 233 234 236 236 235 234 234 233 232 232 232 231 230 231 231 232
198 203 202 203 203 205 211 216 214 216 216 219 217 218 215 225 223 220 213 216 222 224 225 222 231 224 225 230 230 240 242 248 253 236 225 227 229 238 243 241 245 252 267 275 285 271 295 293 295 295 291 276 274 284 282 277 222 211 256 264 258 256 255 241 225 227 230 231 232 233 234 235 236 236 236 234 233 232 232 231 230 230 231 231 231
200 198 202 206 206 211 211 215 219 216 217 218 217 216 217 221 226 227 212 205 217 225 233 225 228 221 220 225 228 236 236 239 239 240 232 229 238 236 227 228 235 237 241 254 264 276 275 287 292 288 276 278 279 276 281 278 270 201 250 255 255 252 245 251 236 229 232 232 234 233 234 235 235 236 236 235 235 234 235 234 233 232 233 233 233
199 199 202 207 210 211 216 215 219 220 216 218 216 215 216 218 221 226 234 218 218 225 227 235 233 227 226 226 230 230 234 235 236 241 240 224 221 229 229 230 233 229 228 239 257 270 271 268 277 282 289 289 285 281 277 275 269 254 230 244 252 256 257 257 259 232 225 231 232 234 234 235 237 238 239 239 239 238 238 237 236 235 234 234 233
201 202 202 205 207 209 213 214 216 219 216 217 221 216 218 219 218 216 218 219 221 226 230 228 227 229 225 229 232 233 229 233 235 240 242 247 235 232 226 227 237 237 224 237 250 267 277 273 271 273 278 275 276 265 266 271 275 272 269 268 261 254 254 260 259 262 235 226 231 233 234 236 239 241 241 241 241 241 240 241 241 239 236 235 233
198 205 202 205 201 204 210 212 211 214 215 215 219 222 220 218 218 221 217 213 215 220 222 225 228 226 228 229 233 232 230 229 230 237 244 246 250 252 247 243 244 251 244 233 249 264 274 278 276 276 273 274 273 278 270 268 269 267 267 265 263 262 261 257 259 261 260 246 235 236 237 240 242 244 245 244 244 243 242 242 242 240 239 238 236
195 199 203 201 199 200 205 208 209 210 211 215 217 219 218 218 220 219 222 221 220 223 226 228 226 226 229 230 236 236 232 229 233 239 240 239 237 235 244 243 244 247 251 249 244 262 278 286 285 283 292 291 285 279 278 271 267 265 264 269 267 266 265 264 263 266 266 267 262 249 243 240 239 241 243 244 243 240 241 242 242 241 240 239 238
199 194 198 200 199 199 204 205 207 208 211 212 214 219 217 217 220 221 221 221 222 225 228 229 229 230 233 235 234 231 229 234 233 234 236 236 234 239 243 243 244 246 251 258 263 264 273 280 284 282 285 281 281 286 287 288 286 276 265 260 266 267 264 263 267 271 278 272 260 253 245 238 238 242 246 248 246 243 244 246 246 245 242 240 239
202 198 194 197 199 201 205 206 206 207 208 210 211 215 218 216 216 221 220 222 224 225 227 228 226 226 229 228 230 232 230 229 237 237 238 236 234 237 241 246 252 257 261 261 262 267 271 276 282 286 277 281 287 285 287 288 291 292 289 283 274 262 262 268 269 274 281 286 289 269 240 233 236 240 245 245 243 240 240 242 242 243 242 240 238
200 202 196 197 199 203 203 206 207 205 205 208 209 209 215 218 217 218 223 220 223 226 227 230 230 228 227 226 225 225 228 229 232 232 227 231 234 240 238 241 243 248 255 253 255 261 264 271 276 274 281 283 291 298 299 295 291 286 288 292 290 273 263 265 280 278 276 278 273 260 257 263 270 264 245 239 241 239 239 240 241 240 239 236 234
201 202 202 198 200 203 204 206 207 206 204 207 206 207 209 213 215 216 220 226 225 224 228 230 232 233 230 230 230 226 226 230 230 228 226 231 235 240 240 238 238 243 254 260 263 266 269 273 276 288 294 298 290 285 290 288 285 277 267 280 285 284 283 280 274 293 288 280 279 284 271 238 234 241 248 254 253 242 236 240 241 242 237 235 232
202 203 205 203 201 204 204 205 205 206 208 206 206 203 204 207 213 217 217 221 225 230 232 232 231 233 236 235 234 235 228 227 228 232 236 241 238 245 247 242 243 248 252 259 264 269 274 274 278 282 285 284 286 285 289 292 293 291 289 277 273 272 276 289 296 298 292 290 287 290 293 304 296 290 293 287 266 230 229 230 238 235 235 234 230
200 203 205 207 206 204 204 203 205 207 210 210 200 196 198 203 206 215 217 220 225 228 230 234 236 234 234 240 242 232 220 210 206 210 217 220 230 248 254 251 247 251 254 259 261 264 269 274 276 279 284 287 290 295 295 292 287 295 296 284 285 293 298 299 297 293 294 293 297 297 300 305 303 300 296 286 285 268 268 241 230 226 228 226 230
201 199 204 206 210 208 206 205 205 208 209 211 185 182 190 201 208 209 216 221 221 225 228 230 235 237 239 236 242 224 201 206 211 210 213 215 220 228 241 250 257 259 261 260 262 267 269 270 276 278 280 287 292 297 293 291 312 349 310 302 301 306 305 306 305 304 278 295 302 295 290 288 295 293 286 278 281 279 274 268 273 233 224 221 220
199 200 202 205 209 211 209 209 210 210 213 202 173 180 185 190 202 212 216 220 223 224 227 229 230 233 236 240 239 239 233 230 233 210 210 217 219 223 231 236 239 246 249 254 265 269 265 270 273 278 285 285 290 291 298 316 334 309 289 289 296 295 293 293 293 295 301 305 303 301 293 285 284 282 281 279 280 277 269 268 260 249 231 224 222
197 200 202 204 207 210 213 212 216 214 218 183 173 180 185 189 196 211 224 225 225 226 227 226 230 231 233 233 240 238 241 212 222 237 234 213 212 221 222 228 237 237 237 240 244 248 265 268 275 277 274 278 280 287 310 333 321 303 299 292 284 282 287 291 292 296 299 308 304 298 296 294 293 280 276 275 277 273 274 262 250 245 243 230 224
198 200 203 205 206 207 212 215 217 222 223 174 177 179 185 188 194 201 223 227 231 232 229 228 228 228 229 230 230 232 233 232 231 231 233 239 233 208 213 221 228 226 224 228 226 229 234 246 255 264 264 272 279 294 305 75 307 295 301 299 302 302 301 296 298 294 291 294 291 299 295 288 287 286 281 282 278 280 278 277 270 260 246 238 234
198 200 203 203 205 206 209 214 217 219 228 173 177 179 184 188 192 197 217 225 230 231 231 230 230 231 230 229 231 234 233 232 231 227 234 234 236 248 250 248 240 253 231 214 208 218 218 225 234 240 248 262 270 262 269 81 256 267 275 282 293 296 296 296 290 280 279 276 275 278 284 287 295 290 288 292 293 290 289 283 269 259 255 248 240
200 200 203 206 205 207 210 213 218 219 219 174 178 180 184 189 185 195 213 223 229 231 230 230 229 228 229 231 231 234 236 238 227 211 224 237 252 258 259 257 263 263 263 257 230 208 225 219 214 230 241 332 144 272 265 142 221 268 285 287 288 285 287 289 289 291 286 284 287 287 289 289 292 289 291 292 291 288 289 292 289 286 275 254 243
200 201 204 206 208 209 210 210 215 218 224 176 176 180 184 183 175 202 209 218 226 229 234 231 230 231 229 226 228 233 235 235 230 196 199 212 245 256 261 266 270 273 275 270 198 204 220 229 250 299 330 296 282 272 262 238 216 246 267 275 271 274 278 288 292 298 299 305 299 290 288 288 289 291 293 291 291 291 292 291 290 284 279 266 244
205 203 204 207 208 211 211 213 211 215 225 180 176 177 181 175 183 200 207 214 222 226 232 233 234 234 231 225 229 231 235 237 221 185 188 189 233 248 261 267 270 271 270 268 275 233 178 159 177 211 221 236 239 246 250 245 229 221 233 250 278 296 292 291 296 302 302 302 297 301 296 289 302 303 301 301 297 290 296 300 302 302 282 269 247
210 207 206 208 210 211 213 216 206 215 225 194 174 176 179 178 187 203 208 215 219 223 226 229 230 233 235 224 218 228 235 239 214 182 178 189 233 252 258 266 267 269 270 277 284 299 232 260 249 252 244 228 229 233 222 208 211 196 221 256 286 285 292 300 301 301 300 300 314 342 314 309 313 312 318 312 305 305 310 319 325 322 323 319 310